sat.trackr.live / text

‹ back to catalog

STARLINK-4170

NORAD 53140 · 2022-083J

PAYLOAD ACTIVE UNKNOWN

§ Identity

Operator
Country
US
Launch date
2022-07-17
Launch site
AFETR
Launch vehicle
Mass (kg)
RCS (m²)

Purposes: comms

External: N2YO · Heavens-Above · Gunter

§ Orbital elements

Epoch: 2026-09-20T00:08:23.967744Z

Period
93.79 min
Inclination
53.1605°
Eccentricity
0.0001239
Mean motion
15.35394688 rev/d
Perigee alt
458.9 km
Apogee alt
460.6 km
Semi-major
6,837.9 km
B*
4.8449e-5
RAAN
8.4521°
Arg perigee
83.9193°
Mean anomaly
276.1951°
Rev number
23,073

§ Raw data

STARLINK-41701 53140U 22083J   26263.00583296  .00001309  00000+0  48449-4 0  99952 53140  53.1605   8.4521 0001239  83.9193 276.1951 15.35394688230731

JSON: /api/v1/satellites/53140 · /tle

For live sub-satellite position, see the globe view (requires WebGL).

§ Visibility from observer

Set your observer location to see the next 7 days of passes ≥ 10°. The values pass through the URL so the page stays shareable.

No JS? Fill the form by hand. The geolocation button needs JavaScript.